Погода в Бемыже

Россия / Удмуртская Республика     56°08′49″N   51°43′15″E
темп.,
°C
ветер,
м/с
пор.,
м/с
влажн.,
%
обл.,
%
осадки,
мм/ч
давл.,
гПа
погр.,
м
14 мая, пт
пт1401:00+17ююв366392 0.0 102385
04:00+16ююв236612 0.0 102441
07:00+19ю27635 0.0 1024219
10:00+24ююв464429 0.0 1023587
13:00+27ю67365 0.0 10221258
16:00+27ю693632 0.0 10211834
19:00+23ю4115142 0.0 1020351
22:00+19ю311603 0.0 1020205
15 мая, сб
сб1501:00+16ю3468100 0.0 102060
04:00+15ююз337528 0.0 102050
07:00+18ююз2568100 0.0 1020166
10:00+23ю474579 0.0 1020514
13:00+27юз6935100 0.0 1020904
16:00+28юз593456 0.0 10191496
19:00+24ююз410475 0.0 1018272
22:00+18ююз33625 0.0 101842
16 мая, вс
вс1601:00+17ююз336314 0.0 101928
04:00+15ю33605 0.0 101936
07:00+19ю3105991 0.0 1019248
10:00+25ююз59405 0.0 1019596
13:00+28ююз69325 0.0 10181923
16:00+29юз6933100 0.0 10173069
19:00+24юз2354100 0.0 101747
22:00+20ю3359100 0.0 101627
17 мая, пн
пн1701:00+18ююз3464100 0.0 101764
04:00+16ююз3469100 0.0 101868
07:00+19юз256597 0.0 1018156
10:00+24юз354862 0.0 1018708
13:00+28зюз473516 0.0 10181661
16:00+28зюз473523 0.0 10181876
19:00+25зюз23535 0.0 101741
22:00+19з386891 0.1 1018118
18 мая, вт
вт1801:00+17юз00645 0.0 101811
04:00+16ю016798 0.3 101811
07:00+20юз236093 0.0 1018129
10:00+25юз234596 0.0 1018575
13:00+29юз233116 0.0 10172181
16:00+29юз332873 0.0 10173084
19:00+25з3454100 0.0 101773
22:00+20зсз115987 0.0 101711